CAPE
816 811 802 884 843 653 486 384 278 191 179 168 139 120 132 128 114 97 105 93 127 129 63 185 600 448 146 73 56 0 12 79 179 133 5 1 0 0 0 0 61 105 260
851 792 766 865 795 637 442 296 170 137 158 170 204 188 164 126 121 112 132 173 256 159 152 172 423 296 229 23 35 9 0 88 0 0 0 0 2 2 0 0 0 0 1
924 805 754 783 716 555 367 265 222 252 196 168 233 226 147 129 139 152 149 348 774 589 460 215 450 382 173 53 62 0 0 0 0 0 0 0 1 5 5 2 1 2 0
1005 815 778 699 537 433 288 257 286 219 200 258 253 208 181 170 189 190 150 316 798 866 615 428 515 397 124 72 26 0 0 0 0 0 0 0 1 10 10 9 7 7 7
1050 839 751 520 413 335 223 239 276 299 258 224 231 235 246 226 232 203 141 132 341 723 624 607 425 113 13 42 40 0 0 0 0 0 0 3 10 26 25 19 17 19 16
977 817 511 362 453 386 261 355 352 271 181 145 193 291 292 279 265 200 115 83 192 372 346 278 4 0 9 0 0 0 0 0 0 0 0 6 13 20 17 19 13 16 19
845 723 557 359 385 345 421 509 419 263 201 221 250 278 243 260 202 195 141 98 82 114 88 4 2 1 0 0 0 0 0 0 0 0 0 5 12 7 6 5 8 14 13
563 504 413 356 310 393 436 436 322 282 272 279 305 311 280 210 142 164 167 135 90 24 0 0 9 7 0 0 0 0 0 0 0 0 0 3 11 9 6 3 4 5 6
497 354 258 214 124 265 307 332 322 299 310 335 370 293 251 177 110 105 126 115 81 36 14 0 0 0 0 0 0 0 0 0 0 0 0 1 9 8 6 2 4 5 3
369 374 183 97 20 1 269 315 405 292 273 286 275 215 195 167 129 135 159 135 48 20 0 0 0 0 0 0 0 0 0 0 0 0 0 4 14 12 7 1 0 0 1
147 224 175 70 69 0 249 328 420 405 246 209 189 172 74 22 1 0 24 108 92 4 0 0 0 0 0 0 0 0 0 0 0 0 0 3 11 19 17 2 0 0 0
69 150 70 3 3 37 140 276 321 314 223 152 115 87 74 56 6 0 11 59 23 0 0 0 0 0 0 0 0 0 0 0 0 0 0 0 0 18 21 12 5 1 1
89 58 35 73 11 1 69 142 198 243 170 101 85 66 53 49 41 0 2 0 0 0 0 0 0 0 0 0 0 0 0 0 0 0 0 0 0 13 13 9 10 6 0
43 42 78 5 10 6 113 196 181 115 83 76 64 81 32 17 10 0 0 0 0 0 0 0 0 0 0 0 0 0 0 0 0 0 0 0 0 2 10 4 7 7 6
4 14 5 4 2 36 118 120 91 96 79 96 78 117 1 0 0 0 0 0 0 0 0 0 0 0 0 0 0 0 0 0 0 0 0 0 0 0 13 0 17 7 5
5 4 2 0 2 60 175 101 121 105 60 74 99 151 28 0 0 0 1 2 1 0 0 0 0 0 0 0 0 0 0 0 0 0 0 0 0 20 0 0 1 1 1
0 0 0 0 21 160 190 69 77 39 17 27 64 105 101 2 25 19 32 41 14 10 0 4 9 0 0 0 0 0 0 0 0 0 0 0 0 0 0 0 0 0 0
2 0 3 23 107 149 189 46 10 34 105 110 75 100 135 127 78 48 60 58 23 14 29 20 9 0 0 0 0 0 0 0 0 0 0 0 0 0 0 0 0 0 0
2 7 21 193 306 157 133 28 30 55 123 172 131 189 210 207 125 96 65 44 16 17 31 34 2 0 0 0 0 0 0 0 0 0 0 0 0 0 0 0 0 0 0
13 43 126 295 282 141 67 6 12 29 69 43 96 122 214 110 86 82 64 14 10 31 29 15 0 0 0 0 0 0 0 0 0 0 0 0 0 0 0 0 0 0 0
27 69 112 280 267 286 129 27 30 33 47 80 147 125 146 124 81 51 50 41 17 19 9 0 0 0 0 0 0 0 0 0 0 0 0 0 0 0 0 0 0 0 0
72 97 138 227 273 283 231 44 34 35 15 73 169 187 100 28 10 1 2 2 4 11 4 0 0 0 0 0 0 0 0 0 0 0 0 0 0 0 0 0 0 0 0
142 118 122 209 273 268 249 49 44 23 60 157 235 132 41 45 9 12 14 2 4 2 0 0 0 0 0 0 0 0 0 0 0 0 0 0 0 0 0 0 0 0 0
389 162 130 185 203 233 329 50 49 48 80 176 162 110 26 49 23 39 55 1 0 0 0 0 0 0 3 0 3 0 0 0 0 0 0 0 0 0 0 0 0 0 0
719 565 266 199 162 300 432 328 80 51 83 113 193 107 36 38 37 95 53 0 0 0 0 0 0 4 0 2 0 0 0 0 0 0 0 0 0 0 0 0 0 0 0
683 673 541 355 308 389 504 519 444 149 150 153 128 155 94 49 39 60 27 3 3 0 0 0 0 0 18 6 0 0 0 0 0 0 0 0 0 0 0 0 0 0 0
CIN
-47 -25 -7 -1 -1 -22 -52 -66 -77 -89 -97 -93 -106 -93 -71 -51 -34 -28 -38 -48 -33 -32 -54 -8 0 0 -5 -18 -23 0 -2 0 0 0 0 0 0 0 0 0 -1 -2 0
-35 -30 -2 0 -6 -15 -41 -66 -85 -94 -87 -86 -74 -64 -52 -41 -33 -42 -48 -35 -14 -41 -39 -18 0 0 -2 -35 -37 -3 0 -3 0 0 0 0 0 0 0 0 0 0 0
-16 -19 -4 -1 0 -15 -42 -65 -75 -63 -85 -101 -64 -38 -49 -31 -20 -24 -36 -10 0 -1 -5 -12 0 0 -11 -34 -22 0 0 0 0 0 0 0 0 0 0 0 0 0 0
-4 -7 -1 -3 -1 -11 -43 -70 -69 -77 -86 -56 -34 -33 -32 -15 -11 -20 -40 -9 0 -1 -5 -7 0 -1 -20 -22 -46 0 0 0 0 0 0 0 0 0 0 0 0 0 0
-10 -8 0 -1 0 -6 -58 -63 -58 -50 -52 -48 -28 -14 -16 -12 -6 -28 -32 -45 -19 0 0 0 -2 -31 -120 -56 -42 0 0 0 0 0 0 0 0 0 0 0 0 0 0
-4 -4 -7 0 0 0 -20 -46 -48 -54 -66 -50 -28 -1 -10 -22 -7 -13 -44 -63 -34 -13 -10 -14 -16 0 -116 -3 0 0 0 0 0 0 0 0 0 0 0 0 0 0 0
0 0 0 0 -1 -1 -7 -32 -41 -43 -44 -27 -6 0 -6 -4 -6 -16 -35 -58 -74 -54 -57 -40 -23 -37 0 0 0 0 0 0 0 0 0 0 0 0 0 0 0 0 0
0 0 0 0 -1 -1 0 -1 -39 -37 -18 -26 -4 0 -1 -2 -32 -35 -38 -50 -80 -101 0 0 -108 -116 0 0 0 0 0 0 0 0 0 0 0 0 0 0 0 0 0
0 -25 0 0 -2 -9 -2 -11 -9 -7 -16 -6 -1 -13 -17 -22 -66 -51 -53 -68 -71 -81 -101 0 0 0 0 0 0 0 0 0 0 0 0 0 0 0 0 0 0 0 0
0 0 -1 -6 -1 -15 -9 -7 -5 -24 -32 -15 -27 -53 -69 -75 -62 -60 -49 -42 -88 -107 0 0 0 0 0 0 0 0 0 0 0 0 0 0 0 0 0 0 0 0 0
-9 0 0 -5 -45 0 -16 -6 -22 -8 -21 -48 -58 -94 -219 -289 -81 0 -27 -59 -81 -82 0 0 0 0 0 0 0 0 0 0 0 0 0 -5 0 0 0 0 0 0 0
-43 -9 -70 0 -5 -6 -12 -16 -33 -10 -60 -77 -105 -140 -194 -228 -304 0 -109 -111 -138 0 0 0 0 0 0 0 0 0 0 0 0 0 0 0 0 0 0 0 0 0 0
-30 -51 -40 -93 -134 -3 -20 -21 -13 -30 -81 -116 -143 -169 -209 -217 -186 0 -32 0 0 0 0 0 0 0 0 0 0 0 0 0 0 0 0 0 0 0 0 0 0 0 0
-1 0 -16 -3 -5 0 -23 -24 -52 -83 -130 -144 -152 -139 -249 -231 -209 0 0 0 0 0 0 0 0 0 0 0 0 0 0 0 0 0 0 0 0 -1 0 0 0 -1 0
-7 0 0 0 -1 -50 -14 -56 -116 -156 -164 -101 -107 -96 -261 0 0 0 0 0 0 0 0 0 0 0 0 0 0 0 0 0 0 0 0 0 0 0 0 -1 0 0 0
-1 -1 0 0 -14 -21 -8 -83 -90 -98 -130 -114 -106 -87 -115 0 0 0 -22 -17 -5 0 0 0 0 0 0 0 0 0 0 0 0 0 0 0 0 -5 -1 0 0 0 0
0 0 0 0 -60 -26 -13 -90 -102 -143 -153 -137 -134 -28 -44 -114 -27 -26 -23 -18 -11 -6 0 -5 -1 0 0 0 0 0 0 0 0 0 0 0 0 0 0 0 0 0 0
0 0 -16 -76 -36 -44 -37 -109 -156 -141 -90 -96 -81 -97 -93 -43 -37 -27 -19 -13 -5 -2 0 0 -1 0 0 0 0 0 0 0 0 0 0 0 0 0 0 0 0 0 0
-147 -187 -86 -15 -12 -35 -46 -134 -132 -100 -72 -60 -19 -47 -57 -53 -47 -41 -31 -4 0 0 0 0 0 0 0 0 0 0 0 0 0 0 0 0 0 0 0 0 0 0 0
-214 -147 -42 -8 -7 -47 -72 -167 -175 -125 -73 -64 -33 -27 -27 -30 -36 -42 -22 -14 -6 0 0 0 0 0 0 0 0 0 0 0 0 0 0 0 0 0 0 0 0 0 0
-209 -158 -104 -29 -42 -28 -94 -169 -181 -162 -136 -72 -38 -49 -31 -33 -35 -32 -19 -6 -1 -2 0 0 0 0 0 0 0 0 0 0 0 0 0 0 0 0 0 0 0 0 0
-241 -195 -165 -99 -64 -63 -69 -156 -122 -146 -19 -84 -37 -30 -39 -22 -11 0 -24 -15 0 0 0 0 0 0 0 0 0 0 0 0 0 0 0 0 0 0 0 0 0 0 0
-261 -272 -242 -193 -160 -97 -89 -26 -23 -33 -68 -30 -34 -38 -38 -13 -17 -2 -2 0 0 0 0 0 0 0 0 -2 0 0 0 0 0 0 0 0 0 0 0 0 0 0 0
-146 -284 -272 -236 -224 -127 -83 -126 -28 -127 -63 -74 -70 -37 -20 -6 -13 -6 0 0 0 0 0 0 0 0 -3 -1 0 0 0 0 0 0 0 0 0 0 0 0 0 0 0
-118 -147 -286 -275 -252 -132 -66 -71 -55 -22 -86 -58 -26 -30 -25 -11 -4 0 -4 0 0 0 0 0 0 0 0 0 0 0 0 0 0 0 0 0 0 0 0 0 0 0 0
-130 -128 -134 -120 -85 -74 -62 -62 -54 -79 -1 -48 -34 -19 -11 -2 -11 -9 -17 -28 -30 0 0 0 0 0 0 0 0 0 0 0 0 0 0 0 0 0 0 0 0 0 0
Wind_Speed
37 39 40 41 39 42 42 43 44 46 45 42 41 39 36 36 34 nan 28 nan 23 26 nan 32 33 34 32 nan nan nan nan nan 28 29 nan nan nan nan nan nan nan 23 26
42 39 40 39 41 41 42 44 46 46 45 43 40 40 42 38 34 30 26 24 21 27 31 33 34 36 34 nan nan nan nan nan nan nan nan nan nan nan nan nan nan nan nan
31 33 37 36 43 43 45 47 46 45 45 44 41 40 42 39 34 31 29 25 27 30 33 34 36 36 34 nan nan nan nan nan nan nan nan nan nan nan nan nan nan nan nan
35 34 33 35 39 43 45 49 46 44 45 44 39 40 42 40 35 32 29 26 30 33 36 37 37 36 35 nan nan nan nan nan nan nan nan nan nan nan nan nan nan nan nan
37 37 38 43 45 47 48 49 48 51 53 47 45 43 46 40 37 36 32 29 30 35 39 39 39 38 nan nan nan nan nan nan nan nan nan nan nan nan nan nan nan nan nan
39 40 46 47 46 46 47 46 51 57 54 46 50 44 46 42 40 41 36 nan 31 36 39 42 nan nan nan nan nan nan nan nan nan nan nan nan nan nan nan nan nan nan nan
38 37 40 45 42 43 46 47 52 54 51 46 44 45 48 45 43 43 38 nan nan 37 nan nan nan nan nan nan nan nan nan nan nan nan nan nan nan nan nan nan nan nan nan
35 35 42 44 45 46 47 42 46 45 38 42 40 48 52 51 48 39 28 27 nan nan nan nan nan nan nan nan nan nan nan nan nan nan nan nan nan nan nan nan nan nan nan
43 41 42 46 50 50 47 44 43 43 48 43 43 50 53 51 51 40 24 27 nan nan nan nan nan nan nan nan nan nan nan nan nan nan nan nan nan nan nan nan nan nan nan
42 47 48 nan nan nan 59 50 48 47 58 47 42 51 48 35 30 23 23 25 nan nan nan nan nan nan nan nan nan nan nan nan nan nan nan nan nan nan nan nan nan nan nan
41 41 48 nan nan nan 42 57 65 55 60 49 47 47 nan nan nan nan nan 21 nan nan nan nan nan nan nan nan nan nan nan nan nan nan nan nan nan nan nan nan nan nan nan
nan 46 nan nan nan nan 42 42 50 64 46 51 49 nan nan nan nan nan nan nan nan nan nan nan nan nan nan nan nan nan nan nan nan nan nan nan nan nan nan nan nan nan nan
nan nan nan nan nan nan nan 44 44 37 37 41 nan nan nan nan nan nan nan nan nan nan nan nan nan nan nan nan nan nan nan nan nan nan nan nan nan nan nan nan nan nan nan
nan nan nan nan nan nan 41 35 31 28 nan nan nan nan nan nan nan nan nan nan nan nan nan nan nan nan nan nan nan nan nan nan nan nan nan nan nan nan nan nan nan nan nan
nan nan nan nan nan nan 22 25 nan nan nan nan nan 4 nan nan nan nan nan nan nan nan nan nan nan nan nan nan nan nan nan nan nan nan nan nan nan nan nan nan nan nan nan
nan nan nan nan nan nan 23 21 15 16 nan nan nan 10 nan nan nan nan nan nan nan nan nan nan nan nan nan nan nan nan nan nan nan nan nan nan nan nan nan nan nan nan nan
nan nan nan nan nan 21 20 nan nan nan nan nan nan 8 6 nan nan nan nan nan nan nan nan nan nan nan nan nan nan nan nan nan nan nan nan nan nan nan nan nan nan nan nan
nan nan nan nan 23 20 15 nan nan nan 3 5 nan 4 4 10 nan nan nan nan nan nan nan nan nan nan nan nan nan nan nan nan nan nan nan nan nan nan nan nan nan nan nan
nan nan nan 18 14 12 9 nan nan nan 7 7 10 8 8 11 14 nan nan nan nan nan nan nan nan nan nan nan nan nan nan nan nan nan nan nan nan nan nan nan nan nan nan
nan nan 12 11 7 5 nan nan nan nan nan nan nan 7 8 9 nan nan nan nan nan nan nan nan nan nan nan nan nan nan nan nan nan nan nan nan nan nan nan nan nan nan nan
nan nan 9 9 6 0 3 nan nan nan nan nan 9 4 7 14 nan nan nan nan nan nan nan nan nan nan nan nan nan nan nan nan nan nan nan nan nan nan nan nan nan nan nan
nan nan 7 6 4 5 5 nan nan nan nan nan 9 10 11 nan nan nan nan nan nan nan nan nan nan nan nan nan nan nan nan nan nan nan nan nan nan nan nan nan nan nan nan
7 6 7 9 9 8 8 nan nan nan nan 11 13 14 nan nan nan nan nan nan nan nan nan nan nan nan nan nan nan nan nan nan nan nan nan nan nan nan nan nan nan nan nan
7 6 6 6 8 9 12 nan nan nan nan 12 18 19 nan nan nan nan nan nan nan nan nan nan nan nan nan nan nan nan nan nan nan nan nan nan nan nan nan nan nan nan nan
14 14 13 13 12 12 13 13 nan nan nan 20 24 24 nan nan nan nan nan nan nan nan nan nan nan nan nan nan nan nan nan nan nan nan nan nan nan nan nan nan nan nan nan
15 19 19 19 17 17 16 14 14 15 18 24 26 28 nan nan nan nan nan nan nan nan nan nan nan nan nan nan nan nan nan nan nan nan nan nan nan nan nan nan nan nan nan
Wind_Direction
271 277 277 283 286 285 282 280 285 288 291 292 292 290 296 297 303 nan 308 nan 281 282 nan 285 284 282 281 nan nan nan nan nan 270 269 nan nan nan nan nan nan nan 257 256
272 278 275 281 280 279 281 278 283 284 286 290 287 288 290 296 303 298 293 286 271 274 278 280 283 282 282 nan nan nan nan nan nan nan nan nan nan nan nan nan nan nan nan
279 280 279 274 277 278 278 281 287 291 288 289 288 286 290 293 294 291 280 275 264 264 278 280 284 284 283 nan nan nan nan nan nan nan nan nan nan nan nan nan nan nan nan
281 278 278 274 274 275 280 285 289 292 290 287 288 284 283 289 284 285 279 270 261 263 272 280 281 281 284 nan nan nan nan nan nan nan nan nan nan nan nan nan nan nan nan
278 277 272 271 270 276 283 289 285 289 288 287 283 277 283 286 282 280 276 268 260 263 268 276 279 280 nan nan nan nan nan nan nan nan nan nan nan nan nan nan nan nan nan
274 275 272 271 274 280 287 289 284 283 285 285 283 275 281 281 279 276 278 nan 255 264 271 273 nan nan nan nan nan nan nan nan nan nan nan nan nan nan nan nan nan nan nan
274 273 277 277 279 281 282 285 285 288 285 280 277 273 280 285 277 269 273 nan nan 259 nan nan nan nan nan nan nan nan nan nan nan nan nan nan nan nan nan nan nan nan nan
266 278 279 280 276 276 270 274 282 287 283 280 277 270 284 285 276 265 265 260 nan nan nan nan nan nan nan nan nan nan nan nan nan nan nan nan nan nan nan nan nan nan nan
256 256 278 272 263 251 251 254 267 278 269 277 266 263 275 276 272 263 257 257 nan nan nan nan nan nan nan nan nan nan nan nan nan nan nan nan nan nan nan nan nan nan nan
254 266 272 nan nan nan 245 257 259 267 270 260 271 263 264 257 246 238 246 258 nan nan nan nan nan nan nan nan nan nan nan nan nan nan nan nan nan nan nan nan nan nan nan
261 267 274 nan nan nan 239 266 248 245 279 265 266 261 nan nan nan nan nan 268 nan nan nan nan nan nan nan nan nan nan nan nan nan nan nan nan nan nan nan nan nan nan nan
nan 262 nan nan nan nan 256 260 276 268 251 275 256 nan nan nan nan nan nan nan nan nan nan nan nan nan nan nan nan nan nan nan nan nan nan nan nan nan nan nan nan nan nan
nan nan nan nan nan nan nan 261 268 256 263 257 nan nan nan nan nan nan nan nan nan nan nan nan nan nan nan nan nan nan nan nan nan nan nan nan nan nan nan nan nan nan nan
nan nan nan nan nan nan 256 258 238 254 nan nan nan nan nan nan nan nan nan nan nan nan nan nan nan nan nan nan nan nan nan nan nan nan nan nan nan nan nan nan nan nan nan
nan nan nan nan nan nan 278 243 nan nan nan nan nan 130 nan nan nan nan nan nan nan nan nan nan nan nan nan nan nan nan nan nan nan nan nan nan nan nan nan nan nan nan nan
nan nan nan nan nan nan 254 231 168 130 nan nan nan 194 nan nan nan nan nan nan nan nan nan nan nan nan nan nan nan nan nan nan nan nan nan nan nan nan nan nan nan nan nan
nan nan nan nan nan 90 72 nan nan nan nan nan nan 210 207 nan nan nan nan nan nan nan nan nan nan nan nan nan nan nan nan nan nan nan nan nan nan nan nan nan nan nan nan
nan nan nan nan 75 81 83 nan nan nan 153 204 nan 243 313 300 nan nan nan nan nan nan nan nan nan nan nan nan nan nan nan nan nan nan nan nan nan nan nan nan nan nan nan
nan nan nan 72 78 87 106 nan nan nan 231 220 241 252 296 293 287 nan nan nan nan nan nan nan nan nan nan nan nan nan nan nan nan nan nan nan nan nan nan nan nan nan nan
nan nan 65 68 92 136 nan nan nan nan nan nan nan 253 288 278 nan nan nan nan nan nan nan nan nan nan nan nan nan nan nan nan nan nan nan nan nan nan nan nan nan nan nan
nan nan 66 66 66 224 253 nan nan nan nan nan 245 256 284 293 nan nan nan nan nan nan nan nan nan nan nan nan nan nan nan nan nan nan nan nan nan nan nan nan nan nan nan
nan nan 58 58 32 348 299 nan nan nan nan nan 266 255 271 nan nan nan nan nan nan nan nan nan nan nan nan nan nan nan nan nan nan nan nan nan nan nan nan nan nan nan nan
32 40 33 24 353 334 317 nan nan nan nan 257 263 271 nan nan nan nan nan nan nan nan nan nan nan nan nan nan nan nan nan nan nan nan nan nan nan nan nan nan nan nan nan
348 336 351 339 322 307 301 nan nan nan nan 283 276 283 nan nan nan nan nan nan nan nan nan nan nan nan nan nan nan nan nan nan nan nan nan nan nan nan nan nan nan nan nan
315 311 314 316 317 308 309 301 nan nan nan 287 289 300 nan nan nan nan nan nan nan nan nan nan nan nan nan nan nan nan nan nan nan nan nan nan nan nan nan nan nan nan nan
300 303 304 311 316 311 307 298 301 311 304 298 304 304 nan nan nan nan nan nan nan nan nan nan nan nan nan nan nan nan nan nan nan nan nan nan nan nan nan nan nan nan nan